This demonstration page uses our WeatherBlox Daily Observations layout. Learn more.

Left ArrowRight Arrow

39.92423, -83.80882

Hourly Observations for October 1, 2015

Temp ( °F °C ) Dew Point ( °F °C ) Humidity (%) Winds ( mph kmh ) Pressure ( in mb ) Visibility ( mi km ) Precip ( " mm )
12:56 am 00:56 Clear 53 11.6 50 10 90 90 NE 8 13 30.11 1020 10 16 N/A
1:56 am 01:56 Clear 55 12.7 51 10.5 87 87 NNE 12 19 30.09 1019 10 16 N/A
2:56 am 02:56 Clear 54 12.2 50 10 87 87 NE 12 19 30.10 1019 10 16 N/A
3:56 am 03:56 Clear 53 11.6 49 9.4 86 86 NNE 12 19 30.09 1019 10 16 N/A
4:56 am 04:56 Clear 52 11.1 47 8.3 83 83 NE 14 22 30.09 1019 10 16 N/A
5:56 am 05:56 Clear 52 11.1 46 7.7 80 80 NE 13 20 30.10 1019 10 16 N/A
6:56 am 06:56 Clear 51 10.5 45 7.2 80 80 NE 17 28 30.11 1020 10 16 N/A
7:56 am 07:56 Sunny 51 10.5 45 7.2 80 80 NE 14 22 30.12 1020 10 16 N/A
8:56 am 08:56 Sunny 55 12.7 46 7.7 72 72 NE 18 30 30.12 1020 10 16 N/A
9:56 am 09:56 Sunny 57 13.8 46 7.7 67 67 NE 23 37 30.13 1020 10 16 N/A
10:56 am 10:56 Mostly Sunny 61 16.1 47 8.3 60 60 NE 24 39 30.14 1021 10 16 N/A
11:56 am 11:56 Mostly Sunny 62 16.6 46 7.7 56 56 ENE 23 37 30.13 1020 10 16 N/A
12:56 pm 12:56 Sunny 62 16.6 47 8.3 58 58 NNE 16 26 30.12 1020 10 16 N/A
1:56 pm 13:56 Sunny 60 15.5 46 7.7 60 60 NE 15 24 30.13 1020 10 16 N/A
2:56 pm 14:56 Sunny 65 18.3 48 8.8 54 54 NE 18 30 30.11 1020 10 16 N/A
3:56 pm 15:56 Mostly Sunny 65 18.3 49 9.4 56 56 NE 15 24 30.11 1020 10 16 N/A
4:56 pm 16:56 Mostly Sunny 62 16.6 49 9.4 63 63 NNE 21 33 30.11 1020 10 16 N/A
5:56 pm 17:56 Mostly Cloudy 60 15.5 49 9.4 67 67 NNE 21 33 30.13 1020 10 16 N/A
6:56 pm 18:56 Sunny 57 13.8 48 8.8 72 72 NNE 17 28 30.15 1021 10 16 N/A
7:56 pm 19:56 Clear 60 15.5 49 9.4 67 67 NE 14 22 30.08 1019 10 16 N/A
8:56 pm 20:56 Mostly Cloudy 55 12.7 48 8.8 77 77 NNE 18 30 30.16 1021 10 16 N/A
9:56 pm 21:56 Mostly Cloudy 56 13.3 49 9.4 77 77 NE 21 33 30.16 1021 10 16 N/A
10:56 pm 22:56 Clear 56 13.3 49 9.4 77 77 NNE 20 31 30.16 1021 10 16 N/A
11:56 pm 23:56 Cloudy 56 13.3 49 9.4 77 77 NE 14 22 30.16 1021 10 16 N/A

Powered by AerisWeather